Location: Frizzleburg
(41.0764°N, 80.4548°W)
Time: 15:07:01
(UTC+00:00)

Cosmos 1328 Rocket - Pass Details

Date: 17 November 2019
Orbit: 600 x 628 km, 82.5° (Epoch: 05 December)

Event Time Altitude Azimuth Distance (km) Brightness Sun altitude
Rises 10:53:52 0° 349° (N) 2,872 6.7 -14.7°
Reaches altitude 10° 10:56:06 10° 347° (NNW) 1,960 5.9 -14.3°
Maximum altitude 11:00:24 68° 265° (W) 650 3.4 -13.5°
Drops below altitude 10° 11:04:39 10° 182° (S) 1,936 6.3 -12.7°
Sets 11:06:51 0° 180° (S) 2,834 7.1 -12.3°
